Location: Beaufort Park
(39.1418°N, 76.9433°W)
Time: 00:24:30
(UTC+00:00)

YAOGAN 1 - Pass Details

Date: 29 October 2020
Orbit: 618 x 620 km, 97.9° (Epoch: 03 December)

Event Time Altitude Azimuth Distance (km) Brightness Sun altitude
Rises 23:40:36 0° 161° (SSE) 2,882 5.8 -18.1°
Reaches altitude 10° 23:42:47 10° 159° (SSE) 1,981 5.0 -18.6°
Maximum altitude 23:47:04 70° 76° (ENE) 661 2.4 -19.4°
Drops below altitude 10° 23:51:23 10° 352° (N) 1,995 5.2 -20.2°
Sets 23:53:35 0° 351° (N) 2,905 6.1 -20.7°
